Weather History for Massena, NY

Change the Weather History Date:

Friday, April 25, 2014

  Actual Average Record
Temperature  
Mean Temperature 41 °F 48 °F  
Max Temperature 57 °F 59 °F 83 °F (2009)
Min Temperature 25 °F 37 °F 21 °F (1974)
Degree Days  
Heating Degree Days 24 17  
Month to date heating degree days 607 570  
Since 1 July heating degree days 8204 7701  
Cooling Degree Days 0 0  
Month to date cooling degree days 0 0  
Year to date cooling degree days 0 0  
Moisture  
Dew Point 23 °F    
Average Humidity 55    
Maximum Humidity 85    
Minimum Humidity 24    
Precipitation  
Precipitation T in 0.09 in 0.96 in (1951)
Month to date precipitation 2.72 2.33  
Year to date precipitation 6.37 8.37  
Sea Level Pressure  
Sea Level Pressure 29.94 in    
Wind  
Wind Speed 10 mph (NE)    
Max Wind Speed 28 mph    
Max Gust Speed 34 mph    
Visibility 10 miles    
Events      
T = Trace of Precipitation, MM = Missing Value Source: NWS Daily Summary

Daily Weather History Graph

Daily Weather History Graph

Search for Another Location

Airport:

Trip Planner

Search our weather history database for the weather conditions in past years. The results will help you decide how hot, cold, wet, or windy it might be!

Date:

Astronomy

Apr. 25, 2014 Rise Set
Actual Time 5:58 AM EDT 7:57 PM EDT
Civil Twilight 5:26 AM EDT 8:29 PM EDT
Nautical Twilight 4:47 AM EDT 9:08 PM EDT
Astronomical Twilight 4:05 AM EDT 9:50 PM EDT
Moon 3:55 AM EDT (4/25) 4:07 PM EDT (4/25)
Length of Visible Light 15h 02m
Length of Day
13h 59m
Waning Crescent, 15% of the Moon is Illuminated
Apr 25
Waning Crescent
Apr 29
New
May 6
First Quarter
May 14
Full
May 21
Last Quarter

Hourly Weather History & Observations

Time (EDT) Temp. Windchill Dew Point Humidity Pressure Visibility Wind Dir Wind Speed Gust Speed Precip Events Conditions
12:53 AM 35.1 °F 31.0 °F 19.9 °F 54% 30.05 in 10.0 mi NW 4.6 mph - N/A   Clear
1:53 AM 37.9 °F 34.4 °F 17.1 °F 43% 30.05 in 10.0 mi NW 4.6 mph - N/A   Clear
2:53 AM 32.0 °F - 21.0 °F 64% 30.05 in 10.0 mi Calm Calm - N/A   Clear
3:53 AM 28.0 °F - 24.1 °F 85% 30.05 in 10.0 mi Calm Calm - N/A   Clear
4:53 AM 27.0 °F - 23.0 °F 85% 30.06 in 10.0 mi Calm Calm - N/A   Clear
5:53 AM 26.1 °F 21.9 °F 23.0 °F 88% 30.09 in 10.0 mi WNW 3.5 mph - N/A   Clear
6:53 AM 30.9 °F - 26.1 °F 82% 30.09 in 10.0 mi Calm Calm - N/A   Clear
7:53 AM 37.9 °F 32.7 °F 21.9 °F 53% 30.09 in 10.0 mi NNE 6.9 mph - N/A   Clear
8:53 AM 41.0 °F 36.4 °F 19.9 °F 43% 30.09 in 10.0 mi NNE 6.9 mph - N/A   Clear
9:53 AM 43.0 °F 41.3 °F 19.9 °F 40% 30.07 in 10.0 mi Variable 3.5 mph - N/A   Clear
10:53 AM 45.0 °F 41.2 °F 21.9 °F 40% 30.04 in 10.0 mi ENE 6.9 mph - N/A   Clear
11:53 AM 46.9 °F - 23.0 °F 39% 30.01 in 10.0 mi ENE 9.2 mph - N/A   Scattered Clouds
12:53 PM 50.0 °F - 23.0 °F 35% 29.98 in 10.0 mi Variable 6.9 mph - N/A   Scattered Clouds
1:53 PM 53.1 °F - 19.0 °F 26% 29.93 in 10.0 mi ESE 6.9 mph - N/A   Clear
2:53 PM 54.0 °F - 23.0 °F 30% 29.89 in 10.0 mi NE 11.5 mph - N/A   Clear
3:53 PM 55.0 °F - 19.0 °F 24% 29.85 in 10.0 mi NE 15.0 mph 20.7 mph N/A   Clear
4:53 PM 55.0 °F - 24.1 °F 30% 29.80 in 10.0 mi NE 19.6 mph 26.5 mph N/A   Clear
5:53 PM 53.1 °F - 26.1 °F 35% 29.80 in 10.0 mi NE 15.0 mph - N/A   Overcast
6:53 PM 52.0 °F - 26.1 °F 37% 29.78 in 10.0 mi NE 15.0 mph - N/A   Mostly Cloudy
7:53 PM 50.0 °F - 27.0 °F 41% 29.77 in 10.0 mi NE 19.6 mph - N/A   Overcast
8:53 PM 48.9 °F - 28.0 °F 44% 29.76 in 10.0 mi ENE 19.6 mph 27.6 mph N/A   Overcast
9:53 PM 48.0 °F - 28.0 °F 46% 29.77 in 10.0 mi ENE 21.9 mph 27.6 mph N/A   Overcast
10:53 PM 46.9 °F - 26.1 °F 44% 29.75 in 10.0 mi ENE 23.0 mph - N/A   Overcast
11:53 PM 46.9 °F - 27.0 °F 46% 29.75 in 10.0 mi ENE 15.0 mph 25.3 mph 0.00 in   Overcast